Weather in Bad Hofgastein

Austria     47°10′20″N   13°05′53″E
temp.,
°C
wind,
m/s
gust,
m/s
humid.,
%
clouds,
%
prec.,
mm/h
press.,
hPa
HPBL,
m
29 july, thu
thu2923:00+9s22979 3.9 102034
02:00+8s21925 3.9 102014
05:00+7s11920 0.0 101912
08:00+11ene00880 0.0 1019130
11:00+18nne225830 0.0 10161091
14:00+21ne234758 0.1 10141680
17:00+20ne125685 0.1 1013907
20:00+15n11892 0.8 101512
30 july, fri
fri3023:00+11sw119654 0.4 101710
02:00+11s119521 0.4 101716
05:00+10s22944 0.5 101622
08:00+15s12855 0.5 1015109
11:00+21nne124952 0.3 10131179
14:00+23nnw114894 1.9 10111668
17:00+19ese117596 2.8 1012136
20:00+16se1188100 4.6 101211
31 july, sat
sat3123:00+13ssw2296100 3.8 101428
02:00+13wnw1198100 6.6 101437
05:00+11ssw119992 1.1 101311
08:00+12nw0198100 2.2 1013183
11:00+15ne1188100 2.8 1012527
14:00+16n218897 5.5 1012598
17:00+15n2292100 4.9 1012394
20:00+13nne1198100 6.7 101259
1 august, sun
sun123:00+12se1198100 0.3 101228
02:00+11s229510 0.4 101042
05:00+10sse2297100 0.2 100861
08:00+12sw129437 0.9 1008199
11:00+14wnw1290100 1.8 1007426
14:00+12n2297100 6.3 1008292
17:00+9n2399100 5.1 1012311
20:00+8nw2299100 7.7 1014195
2 august, mon
mon223:00+7wnw1299100 0.6 1015147
02:00+7wnw019886 1.3 101530
05:00+7w119962 0.0 101656
08:00+8nw119696 0.0 1017220
11:00+13nne116847 0.1 1016918
14:00+15n216154 0.6 10151202
17:00+13ne118118 1.6 1016450
20:00+11ene119314 2.9 101716